EW6167 Weather Reports


time (UTC)temp
C
wind
direction
speed
KPH
gust
KPH
rain 1hr
cm
rain 24hr
cm
rain mn
cm
humidity
%
barometer
mb
20260509175524 12 36 16.1 0.0 0.00 0.00 0.00 31 1012.4
20260509175001 12 360 16.1 0.0 0.00 0.00 0.00 31 1012.5
20260509174543 12 38 14.5 0.0 0.00 0.00 0.00 29 1012.5
20260509174021 12 51 14.5 0.0 0.00 0.00 0.00 31 1012.4
20260509173605 12 10 17.7 0.0 0.00 0.00 0.00 30 1012.4
20260509173047 12 339 19.3 0.0 0.00 0.00 0.00 30 1012.3
20260509172522 12 11 19.3 0.0 0.00 0.00 0.00 31 1012.4
20260509172106 12 355 16.1 0.0 0.00 0.00 0.00 32 1012.4
20260509171550 12 360 17.7 0.0 0.00 0.00 0.00 32 1012.5
20260509171027 12 360 16.1 0.0 0.00 0.00 0.00 31 1012.5
20260509170507 11 330 16.1 0.0 0.00 0.00 0.00 33 1012.5
20260509170052 11 350 20.9 0.0 0.00 0.00 0.00 33 1012.4
20260509165525 12 334 20.9 0.0 0.00 0.00 0.00 32 1012.4
20260509165005 11 337 22.5 0.0 0.00 0.00 0.00 33 1012.4
20260509164552 11 316 19.3 0.0 0.00 0.00 0.00 33 1012.4
20260509164036 11 11 17.7 0.0 0.00 0.00 0.00 34 1012.4
20260509163518 11 355 17.7 0.0 0.00 0.00 0.00 33 1012.5
20260509163104 12 350 17.7 0.0 0.00 0.00 0.00 34 1012.4
20260509162548 11 345 20.9 0.0 0.00 0.00 0.00 34 1012.4
20260509162032 11 11 20.9 0.0 0.00 0.00 0.00 33 1012.4
20260509161513 11 11 20.9 0.0 0.00 0.00 0.00 35 1012.6
20260509161058 11 26 17.7 0.0 0.00 0.00 0.00 35 1012.5
20260509160544 11 5 14.5 0.0 0.00 0.00 0.00 35 1012.4
20260509160036 11 20 16.1 0.0 0.00 0.00 0.00 35 1012.4
20260509155517 11 355 17.7 0.0 0.00 0.00 0.00 35 1012.4
20260509155104 10 5 19.3 0.0 0.00 0.00 0.00 34 1012.4
20260509154551 10 329 20.9 0.0 0.00 0.00 0.00 34 1012.3
20260509154032 11 355 19.3 0.0 0.00 0.00 0.00 36 1012.2
20260509153518 10 342 19.3 0.0 0.00 0.00 0.00 35 1012.3
20260509153111 10 348 17.7 0.0 0.00 0.00 0.00 37 1012.3
20260509152548 10 5 17.7 0.0 0.00 0.00 0.00 36 1012.4
20260509152034 10 360 12.9 0.0 0.00 0.00 0.00 37 1012.5
20260509151524 10 21 11.3 0.0 0.00 0.00 0.00 38 1012.6
20260509151011 10 11 12.9 0.0 0.00 0.00 0.00 38 1012.5
20260509150602 10 342 14.5 0.0 0.00 0.00 0.00 37 1012.4
20260509150043 10 35 14.5 0.0 0.00 0.00 0.00 39 1012.5
20260509145526 10 15 14.5 0.0 0.00 0.00 0.00 40 1012.5
20260509145010 9 343 16.1 0.0 0.00 0.00 0.00 40 1012.5
20260509144602 9 360 17.7 0.0 0.00 0.00 0.00 39 1012.4
20260509144048 9 5 14.5 0.0 0.00 0.00 0.00 39 1012.5
20260509143534 9 5 9.7 0.0 0.00 0.00 0.00 41 1012.4
20260509143024 8 36 9.7 0.0 0.00 0.00 0.00 43 1012.6
20260509142512 8 15 9.7 0.0 0.00 0.00 0.00 44 1012.6
20260509142103 8 30 9.7 0.0 0.00 0.00 0.00 44 1012.6
20260509141551 8 28 11.3 0.0 0.00 0.00 0.00 45 1012.6
20260509141041 7 23 11.3 0.0 0.00 0.00 0.00 48 1012.7
20260509140525 7 26 9.7 0.0 0.00 0.00 0.00 47 1012.6
20260509140017 7 33 6.4 0.0 0.00 0.00 0.00 48 1012.6
20260509135510 7 347 6.4 0.0 0.00 0.00 0.00 46 1012.6
20260509135055 7 355 6.4 0.0 0.00 0.00 0.00 46 1012.6
20260509134545 7 360 6.4 0.0 0.00 0.00 0.00 46 1012.6
20260509134031 6 40 4.8 0.0 0.00 0.00 0.00 47 1012.6
20260509133517 6 38 6.4 0.0 0.00 0.00 0.00 47 1012.5
20260509133003 6 38 6.4 0.0 0.00 0.00 0.00 47 1012.5
20260509132553 6 62 4.8 0.0 0.00 0.00 0.00 46 1012.4
20260509132045 6 62 6.4 0.0 0.00 0.00 0.00 47 1012.4
20260509131532 6 62 4.8 0.0 0.00 0.00 0.00 47 1012.2
20260509131021 6 66 4.8 0.0 0.00 0.00 0.00 48 1012.2
20260509130510 7 355 4.8 0.0 0.00 0.00 0.00 48 1012.0
20260509130005 7 355 6.4 0.0 0.00 0.00 0.00 48 1012.0
20260509125556 7 355 8.0 0.0 0.00 0.00 0.00 48 1011.9
20260509125049 6 355 8.0 0.0 0.00 0.00 0.00 48 1011.9
20260509124548 6 344 4.8 0.0 0.00 0.00 0.00 48 1011.9
20260509124032 6 77 4.8 0.0 0.00 0.00 0.00 48 1011.9
20260509123526 6 355 4.8 0.0 0.00 0.00 0.00 46 1011.9
20260509123015 6 355 6.4 0.0 0.00 0.00 0.00 46 1012.0
20260509122502 6 355 4.8 0.0 0.00 0.00 0.00 46 1012.0
20260509122058 6 355 4.8 0.0 0.00 0.00 0.00 46 1012.0
20260509121553 6 355 4.8 0.0 0.00 0.00 0.00 47 1011.9
20260509121048 6 351 8.0 0.0 0.00 0.00 0.00 47 1011.9
20260509120536 5 351 6.4 0.0 0.00 0.00 0.00 48 1011.8
20260509120025 5 355 4.8 0.0 0.00 0.00 0.00 48 1011.7
20260509115517 5 34 3.2 0.0 0.00 0.00 0.00 47 1011.6
20260509115006 6 355 1.6 0.0 0.00 0.00 0.00 45 1011.5
20260509114600 6 341 1.6 0.0 0.00 0.00 0.00 44 1011.5
20260509114053 6 341 3.2 0.0 0.00 0.00 0.00 43 1011.5
20260509113548 6 341 4.8 0.0 0.00 0.00 0.00 42 1011.5
20260509113043 7 341 6.4 0.0 0.00 0.00 0.00 42 1011.4
20260509112529 7 341 8.0 0.0 0.00 0.00 0.00 42 1011.5
20260509112020 7 341 9.7 0.0 0.00 0.00 0.00 42 1011.4
20260509111514 7 341 11.3 0.0 0.00 0.00 0.00 42 1011.5
20260509111006 6 340 12.9 0.0 0.00 0.00 0.00 43 1011.6
20260509110601 6 340 12.9 0.0 0.00 0.00 0.00 43 1011.6
20260509110052 6 340 11.3 0.0 0.00 0.00 0.00 44 1011.4
20260509105552 5 340 8.0 0.0 0.00 0.00 0.00 44 1011.5
20260509105048 5 22 6.4 0.0 0.00 0.00 0.00 44 1011.4
20260509104605 5 26 6.4 0.0 0.00 0.00 0.00 42 1011.3
20260509104042 5 26 4.8 0.0 0.00 0.00 0.00 43 1011.3
20260509103537 5 30 4.8 0.0 0.00 0.00 0.00 43 1011.2
20260509103034 5 30 6.4 0.0 0.00 0.00 0.00 42 1011.2
20260509102524 5 41 6.4 0.0 0.00 0.00 0.00 43 1011.3
20260509102015 5 46 6.4 0.0 0.00 0.00 0.00 43 1011.2
20260509101513 5 44 6.4 0.0 0.00 0.00 0.00 43 1011.1
20260509101100 5 42 8.0 0.0 0.00 0.00 0.00 42 1011.0
20260509100555 5 38 8.0 0.0 0.00 0.00 0.00 42 1011.0
20260509100047 5 36 6.4 0.0 0.00 0.00 0.00 42 1010.9
20260509095539 5 37 6.4 0.0 0.00 0.00 0.00 41 1010.9
20260509095029 5 37 8.0 0.0 0.00 0.00 0.00 40 1010.9
20260509094528 5 36 6.4 0.0 0.00 0.00 0.00 39 1010.9
20260509094011 6 44 6.4 0.0 0.00 0.00 0.00 38 1010.8
20260509093508 7 55 6.4 0.0 0.00 0.00 0.00 35 1010.7
20260509093003 7 63 4.8 0.0 0.00 0.00 0.00 35 1010.6
20260509092604 6 52 3.2 0.0 0.00 0.00 0.00 36 1010.5
20260509092059 6 52 3.2 0.0 0.00 0.00 0.00 37 1010.5
20260509091552 6 52 6.4 0.0 0.00 0.00 0.00 38 1010.5
20260509091049 6 28 6.4 0.0 0.00 0.00 0.00 37 1010.4
20260509090540 6 21 4.8 0.0 0.00 0.00 0.00 37 1010.4
20260509090047 7 33 4.8 0.0 0.00 0.00 0.00 36 1010.4
20260509085523 7 17 6.4 0.0 0.00 0.00 0.00 36 1010.4
20260509085017 7 17 8.0 0.0 0.00 0.00 0.00 35 1010.3
20260509084512 7 5 8.0 0.0 0.00 0.00 0.00 35 1010.3
20260509084007 8 18 9.7 0.0 0.00 0.00 0.00 35 1010.2
20260509083504 8 351 9.7 0.0 0.00 0.00 0.00 35 1010.3
20260509083002 8 5 11.3 0.0 0.00 0.00 0.00 37 1010.2
20260509082604 8 351 11.3 0.0 0.00 0.00 0.00 36 1010.2
20260509082059 8 355 11.3 0.0 0.00 0.00 0.00 34 1010.2
20260509081555 7 355 9.7 0.0 0.00 0.00 0.00 37 1010.1
20260509081048 7 17 8.0 0.0 0.00 0.00 0.00 39 1010.0
20260509080545 8 23 8.0 0.0 0.00 0.00 0.00 40 1009.9
20260509080040 8 26 6.4 0.0 0.00 0.00 0.00 39 1009.9
20260509075532 9 5 4.8 0.0 0.00 0.00 0.00 38 1009.9
20260509075031 9 5 4.8 0.0 0.00 0.00 0.00 37 1009.9
20260509074528 9 5 3.2 0.0 0.00 0.00 0.00 37 1009.9
20260509074022 9 5 3.2 0.0 0.00 0.00 0.00 37 1009.9
20260509073522 10 59 3.2 0.0 0.00 0.00 0.00 37 1009.8
20260509073035 9 58 3.2 0.0 0.00 0.00 0.00 37 1009.7
20260509072515 9 58 3.2 0.0 0.00 0.00 0.00 38 1009.6
20260509072017 10 58 3.2 0.0 0.00 0.00 0.00 38 1009.6
20260509071515 10 58 4.8 0.0 0.00 0.00 0.00 38 1009.6
20260509071011 10 58 6.4 0.0 0.00 0.00 0.00 37 1009.3
20260509070513 10 39 4.8 0.0 0.00 0.00 0.00 38 1009.4
20260509070024 10 344 1.6 0.0 0.00 0.00 0.00 38 1009.4
20260509065535 10 331 3.2 0.0 0.00 0.00 0.00 39 1009.4
20260509065058 10 331 4.8 0.0 0.00 0.00 0.00 38 1009.3
20260509064518 10 331 4.8 0.0 0.00 0.00 0.00 38 1009.3
20260509064038 10 331 4.8 0.0 0.00 0.00 0.00 37 1009.3
20260509063603 11 323 3.2 0.0 0.00 0.00 0.00 37 1009.3
20260509063112 11 323 4.8 0.0 0.00 0.00 0.00 37 1009.3
20260509062601 11 323 8.0 0.0 0.00 0.00 0.00 36 1009.3
20260509062101 11 321 11.3 0.0 0.00 0.00 0.00 36 1009.3
20260509061618 11 332 11.3 0.0 0.00 0.00 0.00 35 1009.4
20260509061104 11 346 12.9 0.0 0.00 0.00 0.00 36 1009.3
20260509060503 11 344 12.9 0.0 0.00 0.00 0.00 35 1009.3
20260509060114 11 342 12.9 0.0 0.00 0.00 0.00 35 1009.2
20260509055504 11 345 12.9 0.0 0.00 0.00 0.00 37 1009.2
20260509055009 11 337 11.3 0.0 0.00 0.00 0.00 38 1009.2
20260509054510 11 330 11.3 0.0 0.00 0.00 0.00 39 1009.3
20260509054006 11 336 11.3 0.0 0.00 0.00 0.00 40 1009.0
20260509053505 12 338 12.9 0.0 0.00 0.00 0.00 40 1009.0
20260509053007 12 340 14.5 0.0 0.00 0.00 0.00 39 1009.0
20260509052507 12 332 16.1 0.0 0.00 0.00 0.00 39 1008.9
20260509052005 12 339 14.5 0.0 0.00 0.00 0.00 39 1009.0
20260509051510 12 346 14.5 0.0 0.00 0.00 0.00 39 1008.9
20260509051016 12 336 14.5 0.0 0.00 0.00 0.00 36 1008.9
20260509050526 12 328 14.5 0.0 0.00 0.00 0.00 34 1008.8
20260509050056 12 328 14.5 0.0 0.00 0.00 0.00 33 1008.8
20260509045502 12 336 14.5 0.0 0.00 0.00 0.00 33 1008.6
20260509045034 12 333 14.5 0.0 0.00 0.00 0.00 34 1008.6
20260509044604 12 340 14.5 0.0 0.00 0.00 0.00 33 1008.6
20260509044028 12 339 14.5 0.0 0.00 0.00 0.00 34 1008.7
20260509043602 12 332 11.3 0.0 0.00 0.00 0.00 33 1008.6
20260509043027 12 355 9.7 0.0 0.00 0.00 0.00 34 1008.7
20260509042603 13 347 11.3 0.0 0.00 0.00 0.00 33 1008.7
20260509042003 13 311 12.9 0.0 0.00 0.00 0.00 32 1008.6
20260509041507 13 331 12.9 0.0 0.00 0.00 0.00 32 1008.6
20260509041017 12 11 12.9 0.0 0.00 0.00 0.00 33 1008.5
20260509040516 13 38 11.3 0.0 0.00 0.00 0.00 33 1008.4
20260509040023 12 307 4.8 0.0 0.00 0.00 0.00 33 1008.2
20260509035559 12 76 1.6 0.0 0.00 0.00 0.00 34 1008.1
20260509035004 12 76 1.6 0.0 0.00 0.00 0.00 35 1008.1
20260509034511 12 78 0.0 0.0 0.00 0.00 0.00 35 1008.1
20260509034015 12 78 0.0 0.0 0.00 0.00 0.00 36 1008.0
20260509033550 12 78 1.6 0.0 0.00 0.00 0.00 36 1008.0
20260509033027 12 78 3.2 0.0 0.00 0.00 0.00 36 1007.8
20260509032559 12 78 3.2 0.0 0.00 0.00 0.00 37 1007.8
20260509032001 12 75 6.4 0.0 0.00 0.00 0.00 36 1007.8
20260509031541 12 72 3.2 0.0 0.00 0.00 0.00 35 1007.6
20260509031014 13 92 1.6 0.0 0.00 0.00 0.00 35 1007.6
20260509030524 13 92 6.4 0.0 0.00 0.00 0.00 35 1007.4
20260509030028 13 65 9.7 0.0 0.00 0.00 0.00 34 1007.4
20260509025605 13 74 9.7 0.0 0.00 0.00 0.00 34 1007.2
20260509025040 14 74 4.8 0.0 0.00 0.00 0.00 32 1007.2
20260509024511 14 311 3.2 0.0 0.00 0.00 0.00 31 1007.3
20260509024042 15 305 1.6 0.0 0.00 0.00 0.00 31 1007.4
20260509023555 15 305 1.6 0.0 0.00 0.00 0.00 30 1007.5
20260509023034 15 305 0.0 0.0 0.00 0.00 0.00 29 1007.5
20260509022507 15 305 0.0 0.0 0.00 0.00 0.00 29 1007.2
20260509022017 15 305 0.0 0.0 0.00 0.00 0.00 29 1007.2
20260509021524 15 305 1.6 0.0 0.00 0.00 0.00 28 1007.3
20260509021005 15 305 4.8 0.0 0.00 0.00 0.00 28 1007.2
20260509020549 16 305 6.4 0.0 0.00 0.00 0.00 27 1007.2
20260509020047 16 303 8.0 0.0 0.00 0.00 0.00 27 1007.2
20260509015513 16 305 11.3 0.0 0.00 0.00 0.00 26 1007.0
20260509015057 16 307 14.5 0.0 0.00 0.00 0.00 25 1007.0
20260509014545 16 313 16.1 0.0 0.00 0.00 0.00 23 1007.0
20260509014014 16 296 12.9 0.0 0.00 0.00 0.00 24 1007.0
20260509013557 16 290 11.3 0.0 0.00 0.00 0.00 25 1007.0
20260509013002 17 296 9.7 0.0 0.00 0.00 0.00 26 1007.0
20260509012511 17 298 11.3 0.0 0.00 0.00 0.00 26 1006.9
20260509012022 17 296 11.3 0.0 0.00 0.00 0.00 25 1007.0
20260509011503 17 290 14.5 0.0 0.00 0.00 0.00 25 1007.1
20260509011046 17 281 16.1 0.0 0.00 0.00 0.00 24 1007.0
20260509010605 17 291 16.1 0.0 0.00 0.00 0.00 23 1007.1
20260509010011 17 277 16.1 0.0 0.00 0.00 0.00 24 1007.2
20260509005600 17 288 14.5 0.0 0.00 0.00 0.00 23 1007.1
20260509005040 17 286 17.7 0.0 0.00 0.00 0.00 23 1007.2
20260509004530 17 263 20.9 0.0 0.00 0.00 0.00 21 1007.3
20260509004013 17 275 19.3 0.0 0.00 0.00 0.00 20 1007.3
20260509003557 17 273 19.3 0.0 0.00 0.00 0.00 20 1007.4
20260509003010 17 292 20.9 0.0 0.00 0.00 0.00 21 1007.3
20260509002553 18 295 19.3 0.0 0.00 0.00 0.00 20 1007.4
20260509002042 18 299 17.7 0.0 0.00 0.00 0.00 20 1007.3
20260509001523 18 275 19.3 0.0 0.00 0.00 0.00 18 1007.3
20260509001005 18 275 20.9 0.0 0.00 0.00 0.00 20 1007.3
20260509000552 18 304 22.5 0.0 0.00 0.00 0.00 20 1007.2
20260509000001 18 265 24.1 0.0 0.00 0.00 0.00 21 1007.2
20260508235517 18 273 25.7 0.0 0.00 0.00 0.00 21 1007.2
20260508235006 18 266 25.7 0.0 0.00 0.00 0.00 22 1007.3
20260508234557 18 293 22.5 0.0 0.00 0.00 0.00 22 1007.2
20260508234042 18 279 24.1 0.0 0.00 0.00 0.00 23 1007.2
20260508233528 18 289 30.6 0.0 0.00 0.00 0.00 18 1007.1
20260508233011 18 276 30.6 0.0 0.00 0.00 0.00 23 1007.1
20260508232559 18 284 25.7 0.0 0.00 0.00 0.00 22 1007.0
20260508232015 18 298 20.9 0.0 0.00 0.00 0.00 22 1007.0
20260508231523 18 315 20.9 0.0 0.00 0.00 0.00 23 1007.0
20260508231016 18 286 17.7 0.0 0.00 0.00 0.00 22 1007.1
20260508230501 18 263 19.3 0.0 0.00 0.00 0.00 23 1007.1
20260508230100 18 300 19.3 0.0 0.00 0.00 0.00 24 1007.0
20260508225508 18 277 20.9 0.0 0.00 0.00 0.00 23 1007.0
20260508225024 18 292 19.3 0.0 0.00 0.00 0.00 23 1007.0
20260508224535 18 360 20.9 0.0 0.00 0.00 0.00 22 1007.0
20260508224025 18 288 24.1 0.0 0.00 0.00 0.00 21 1007.0
20260508223516 18 284 22.5 0.0 0.00 0.00 0.00 21 1007.0
20260508223004 18 292 20.9 0.0 0.00 0.00 0.00 21 1007.0
20260508222604 18 281 20.9 0.0 0.00 0.00 0.00 22 1006.9
20260508222057 18 309 20.9 0.0 0.00 0.00 0.00 20 1007.0
20260508221552 18 299 24.1 0.0 0.00 0.00 0.00 18 1007.0
20260508221001 19 290 25.7 0.0 0.00 0.00 0.00 19 1007.0
20260508220556 19 294 25.7 0.0 0.00 0.00 0.00 19 1006.9
20260508220005 19 284 14.5 0.0 0.00 0.00 0.00 18 1006.9
20260508215559 19 300 12.9 0.0 0.00 0.00 0.00 19 1007.2
20260508215010 20 296 17.7 0.0 0.00 0.00 0.00 17 1007.1
20260508214504 20 293 16.1 0.0 0.00 0.00 0.00 19 1007.2
20260508214057 20 261 19.3 0.0 0.00 0.00 0.00 19 1007.2
20260508213553 20 302 24.1 0.0 0.00 0.00 0.00 20 1007.2
20260508213004 20 303 16.1 0.0 0.00 0.00 0.00 19 1007.4
20260508212601 19 311 14.5 0.0 0.00 0.00 0.00 19 1007.5
20260508212054 19 294 17.7 0.0 0.00 0.00 0.00 18 1007.7
20260508211505 20 311 19.3 0.0 0.00 0.00 0.00 20 1007.7
20260508211058 19 360 20.9 0.0 0.00 0.00 0.00 19 1007.9
20260508210556 19 271 24.1 0.0 0.00 0.00 0.00 19 1008.0
20260508210007 19 294 25.7 0.0 0.00 0.00 0.00 18 1008.0
20260508205501 18 289 24.1 0.0 0.00 0.00 0.00 18 1008.0
20260508205104 19 286 24.1 0.0 0.00 0.00 0.00 19 1007.9
20260508204558 19 292 27.4 0.0 0.00 0.00 0.00 18 1008.1
20260508204055 19 294 25.7 0.0 0.00 0.00 0.00 19 1008.0
20260508203557 19 287 25.7 0.0 0.00 0.00 0.00 19 1008.0
20260508203106 19 323 27.4 0.0 0.00 0.00 0.00 19 1007.9
20260508202554 19 293 24.1 0.0 0.00 0.00 0.00 20 1008.0
20260508202054 19 292 24.1 0.0 0.00 0.00 0.00 21 1008.0
20260508201511 19 277 27.4 0.0 0.00 0.00 0.00 21 1008.1
20260508201010 19 277 20.9 0.0 0.00 0.00 0.00 23 1008.0
20260508200507 19 306 17.7 0.0 0.00 0.00 0.00 24 1008.1
20260508200009 19 277 20.9 0.0 0.00 0.00 0.00 23 1008.2
20260508195506 19 262 22.5 0.0 0.00 0.00 0.00 25 1008.1
20260508195009 19 280 20.9 0.0 0.00 0.00 0.00 23 1008.0
20260508194506 19 322 14.5 0.0 0.00 0.00 0.00 24 1008.2
20260508194003 18 292 8.0 0.0 0.00 0.00 0.00 23 1008.3
20260508193604 18 82 3.2 0.0 0.00 0.00 0.00 30 1008.5
20260508193105 18 39 3.2 0.0 0.00 0.00 0.00 27 1008.6
20260508192605 18 38 4.8 0.0 0.00 0.00 0.00 29 1008.7
20260508192102 17 47 4.8 0.0 0.00 0.00 0.00 33 1008.6
20260508191602 17 52 4.8 0.0 0.00 0.00 0.00 31 1008.6
20260508191048 17 271 8.0 0.0 0.00 0.00 0.00 31 1008.8
20260508190531 17 211 6.4 0.0 0.00 0.00 0.00 31 1008.7
20260508190036 17 103 6.4 0.0 0.00 0.00 0.00 35 1008.8
20260508185541 17 86 6.4 0.0 0.00 0.00 0.00 33 1008.9
20260508185036 17 112 8.0 0.0 0.00 0.00 0.00 35 1009.0
20260508184543 17 163 9.7 0.0 0.00 0.00 0.00 32 1009.0
20260508184033 17 130 11.3 0.0 0.00 0.00 0.00 35 1009.0
20260508183514 17 147 11.3 0.0 0.00 0.00 0.00 35 1009.0
20260508183014 17 129 8.0 0.0 0.00 0.00 0.00 35 1009.1
20260508182514 17 136 6.4 0.0 0.00 0.00 0.00 37 1009.3
20260508182107 17 161 4.8 0.0 0.00 0.00 0.00 35 1009.4
20260508181557 17 109 6.4 0.0 0.00 0.00 0.00 34 1009.4
20260508181033 17 175 8.0 0.0 0.00 0.00 0.00 37 1009.5
20260508180521 16 138 8.0 0.0 0.00 0.00 0.00 36 1009.5
20260508180005 16 115 8.0 0.0 0.00 0.00 0.00 36 1009.5